EHI
10 10 12 15 16 15 13 10 7 6 5 7 8 9 9 9 6 3 2 2 2 3 3 4 4 4 3 2 1 0 0 0 0 0 0 0 0 0 0 0 0 0 0
9 9 8 10 10 9 7 4 3 3 3 4 5 5 6 5 4 2 1 1 1 2 3 3 4 3 2 2 1 0 0 0 0 0 0 0 0 0 0 0 0 0 0
7 6 4 4 3 3 1 0 0 1 1 1 1 1 1 1 1 0 0 0 0 1 1 2 2 1 1 1 0 0 0 0 0 0 0 0 0 0 0 0 0 0 0
2 2 1 1 0 0 0 0 0 0 0 0 0 0 0 0 0 0 0 0 0 0 0 1 1 0 0 0 0 0 0 0 0 0 0 0 0 0 0 0 0 0 0
0 0 0 0 0 0 0 0 0 0 0 0 0 0 0 0 0 0 0 0 0 0 0 0 0 0 0 0 0 0 0 0 0 0 0 0 0 0 0 0 0 0 0
0 0 0 0 0 0 0 0 0 0 0 0 0 0 0 0 0 0 0 0 0 0 0 0 0 0 0 0 0 0 0 0 0 0 0 0 0 0 0 0 0 0 0
0 0 0 0 0 0 0 0 0 0 0 0 0 0 0 0 0 0 0 0 0 0 0 0 0 0 0 0 0 0 0 0 0 0 0 0 0 0 0 0 0 0 0
0 0 0 0 0 0 0 0 0 0 0 0 0 0 0 0 0 0 0 0 0 0 0 0 0 0 0 0 0 0 0 0 0 0 0 0 0 0 0 0 0 0 0
0 0 0 0 0 0 0 0 0 0 0 0 0 0 0 0 0 0 0 0 0 0 0 0 0 0 0 0 0 0 0 0 0 0 0 0 0 0 0 0 0 0 0
0 0 0 0 0 0 0 0 0 0 0 0 0 0 0 0 0 0 0 0 0 0 0 0 0 0 0 0 0 0 0 0 0 0 0 0 0 0 0 0 0 0 0
0 0 0 0 0 0 0 0 0 0 0 0 0 0 0 0 0 0 0 0 0 0 0 0 0 0 0 0 0 0 0 0 0 0 0 0 0 0 0 0 0 0 0
0 0 0 0 0 0 0 0 0 0 0 0 0 0 0 0 0 0 0 0 0 0 0 0 0 0 0 0 0 0 0 0 0 0 0 0 0 0 0 0 0 0 0
0 0 0 0 0 0 0 0 0 0 0 0 0 0 0 0 0 0 0 0 0 0 0 0 0 0 0 0 0 0 0 0 0 0 0 0 0 0 0 0 0 0 0
0 0 0 0 0 0 0 0 0 0 0 0 0 0 0 0 0 0 0 0 0 0 0 0 0 0 0 0 0 0 0 0 0 0 0 0 0 0 0 0 0 0 0
0 0 0 0 0 0 0 0 0 0 0 0 0 0 0 0 0 0 0 0 0 0 0 0 0 0 0 0 0 0 0 0 0 0 0 0 0 0 0 0 0 0 0
0 0 0 0 0 0 0 0 0 0 0 0 0 0 0 0 0 0 0 0 0 0 0 0 0 0 0 0 0 0 0 0 0 0 0 0 0 0 0 0 0 0 0
0 0 0 0 0 0 0 0 0 0 0 0 0 0 0 0 0 0 0 0 0 0 0 0 0 0 0 0 0 0 0 0 0 0 0 0 0 0 0 0 0 0 0
0 0 0 0 0 0 0 0 0 0 0 0 0 0 0 0 0 0 0 0 0 0 0 0 0 0 0 0 0 0 0 0 0 0 0 0 0 0 0 0 0 0 0
0 0 0 0 0 0 0 0 0 0 0 0 0 0 0 0 0 0 0 0 0 0 0 0 0 0 0 0 0 0 0 0 0 0 0 0 0 0 0 0 0 0 0
0 0 0 0 0 0 0 0 0 0 0 0 0 0 0 0 0 0 0 0 0 0 0 0 0 0 0 0 0 0 0 0 0 0 0 0 0 0 0 0 0 0 0
0 0 0 0 0 0 0 0 0 0 0 0 0 0 0 0 0 0 0 0 0 0 0 0 0 0 0 0 0 0 0 0 0 0 0 0 0 0 0 0 0 0 0
0 0 0 0 0 0 0 0 0 0 0 0 0 0 0 0 0 0 0 0 0 0 0 0 0 0 0 0 0 0 0 0 0 0 0 0 0 0 0 0 0 0 0
0 0 0 0 0 0 0 0 0 0 0 0 0 0 0 0 0 0 0 0 0 0 0 0 0 0 0 0 0 0 0 0 0 0 0 0 0 0 0 0 0 0 0
0 0 0 0 0 0 0 0 0 0 0 0 0 0 0 0 0 0 0 0 0 0 0 0 0 0 0 0 0 0 0 0 0 0 0 0 0 0 0 0 0 0 0
0 0 0 0 0 0 0 0 0 0 0 0 0 0 0 0 0 0 0 0 0 0 0 0 0 0 0 0 0 0 0 0 0 0 0 0 0 0 0 0 0 0 0
0 0 0 0 0 0 0 0 0 0 0 0 0 0 0 0 0 0 0 0 0 0 0 0 0 0 0 0 0 0 0 0 0 0 0 0 0 0 0 0 0 0 0
Wind_Speed
7 7 8 7 7 6 6 5 4 3 2 1 1 0 1 1 1 2 4 5 5 5 5 4 4 4 4 3 3 2 2 1 0 0 2 2 2 2 2 2 3 3 4
7 8 8 8 7 6 6 6 5 5 4 2 1 0 1 1 2 2 3 4 4 4 5 5 4 4 3 3 3 3 2 1 1 1 1 2 3 2 1 1 1 2 2
7 7 8 7 6 7 6 6 5 5 5 4 2 1 1 1 1 2 2 2 3 3 3 4 4 4 4 4 4 4 4 2 1 1 2 1 1 2 3 2 1 2 2
6 5 5 5 5 4 4 4 4 5 4 4 4 4 2 1 2 2 2 2 1 1 1 2 3 4 3 4 4 4 3 3 2 1 1 2 2 1 2 3 2 3 3
4 4 3 3 3 3 3 3 3 4 4 5 5 4 3 1 1 2 3 3 2 2 3 2 1 3 3 4 4 4 4 3 3 3 2 1 1 2 2 3 3 3 3
2 2 2 2 2 2 2 2 3 4 3 4 4 4 3 2 3 3 3 3 2 2 4 3 2 1 2 3 4 4 5 5 4 3 3 3 3 3 3 3 3 4 4
2 3 3 2 2 2 1 1 1 1 1 2 2 2 2 2 2 1 1 1 2 2 3 3 3 2 2 2 3 4 5 5 5 5 4 4 4 3 3 3 3 3 3
4 5 5 5 5 5 4 3 2 2 2 2 2 2 2 1 1 1 1 1 1 2 2 2 2 3 3 2 2 3 4 4 5 6 6 4 5 4 4 3 2 3 3
6 6 6 7 7 6 6 5 5 5 5 4 4 4 3 3 3 3 2 2 2 2 2 2 2 2 2 2 2 2 3 4 5 6 6 5 5 5 5 4 4 3 3
6 7 7 7 6 6 6 6 7 7 7 6 5 5 5 5 5 4 4 4 4 3 3 3 3 3 3 2 2 2 3 3 4 4 6 6 4 4 5 5 5 5 4
7 7 7 6 6 6 6 7 7 8 8 8 7 7 7 6 5 5 6 6 5 5 5 4 4 4 4 3 3 3 4 4 4 4 5 6 6 5 5 5 5 5 5
6 6 7 6 6 7 7 7 8 8 9 9 8 8 8 7 7 8 8 7 7 6 6 6 5 5 5 4 4 5 4 4 5 5 5 6 5 6 5 5 6 6 6
6 6 6 6 7 8 8 8 9 9 10 9 9 9 9 9 10 10 9 8 8 7 7 6 7 7 6 6 6 6 5 5 5 5 5 5 5 6 5 6 6 6 6
7 7 7 8 8 9 9 9 10 10 10 9 9 10 11 11 11 11 9 9 9 8 8 8 8 8 7 7 7 6 6 6 6 5 5 6 6 7 7 6 7 6 6
9 9 9 9 9 9 9 9 10 10 9 9 9 11 12 11 10 10 10 10 9 10 9 8 8 8 7 7 8 7 7 6 6 6 6 6 8 9 8 7 7 7 7
10 10 10 9 10 10 10 10 10 10 9 9 11 11 10 10 10 11 11 10 9 9 8 9 9 9 8 10 13 9 7 6 7 7 6 6 8 9 10 12 12 11 9
10 10 10 10 10 10 10 10 11 10 9 10 11 11 10 10 11 11 9 9 10 9 9 9 9 10 11 14 13 13 8 8 7 7 7 6 6 7 6 8 11 12 14
10 10 10 10 10 10 10 10 10 10 10 10 11 10 10 11 10 10 10 10 8 8 8 9 9 9 11 14 14 14 9 7 8 8 8 8 7 7 7 6 7 8 10
10 10 10 11 10 11 11 10 11 11 11 11 11 11 10 10 10 10 10 9 7 8 8 7 9 9 10 13 13 12 6 6 8 8 8 8 8 8 9 7 7 8 7
9 10 10 11 11 12 11 11 12 12 12 12 12 11 10 10 11 10 9 8 7 8 8 8 8 9 10 12 13 11 5 6 6 6 7 9 9 8 8 8 8 9 7
11 11 11 11 12 12 11 12 13 13 13 12 12 12 11 11 11 10 9 8 8 8 8 8 8 8 10 11 12 11 6 7 6 6 5 5 8 9 9 9 8 9 6
11 11 11 12 12 12 12 13 14 13 13 13 13 12 11 11 10 8 8 7 7 8 8 7 7 6 7 9 10 12 11 10 7 6 5 5 7 8 8 7 8 9 7
11 11 12 14 13 12 12 14 15 13 13 13 12 11 11 10 9 8 8 7 6 7 6 6 6 6 5 6 11 11 11 12 8 6 7 7 6 5 5 7 8 8 7
12 11 13 14 15 14 13 13 14 13 13 13 11 10 9 9 7 6 6 6 6 6 6 6 6 5 4 5 4 4 5 7 8 6 5 6 6 5 4 4 5 6 6
10 11 12 14 16 15 15 14 13 12 12 12 10 10 8 8 7 6 5 6 6 6 6 6 5 5 5 6 7 5 5 5 5 5 3 3 3 3 4 3 4 4 5
12 12 13 15 15 15 15 14 13 12 12 10 9 7 6 6 5 5 5 7 8 9 11 9 6 5 7 6 7 8 8 8 9 6 4 4 4 5 4 4 4 4 5
Wind_Direction
51 43 39 39 44 40 40 41 10 5 22 19 348 10 251 252 257 243 224 221 216 208 193 191 189 183 178 180 179 163 161 192 184 357 323 318 300 282 257 265 259 261 261
41 40 41 40 36 35 29 39 21 15 10 351 23 254 254 256 248 249 232 226 217 211 205 196 192 184 172 169 172 156 151 174 152 139 61 342 342 342 349 322 281 284 283
39 28 30 33 34 38 31 32 33 26 13 3 16 355 14 354 303 277 263 258 237 221 209 206 199 186 174 181 185 169 163 175 193 179 160 163 244 309 321 327 329 323 300
33 32 29 28 28 36 46 44 40 40 27 25 37 43 35 3 326 315 323 324 324 304 260 225 207 198 190 188 190 177 169 163 184 198 209 200 178 195 311 313 314 313 296
25 30 23 18 20 31 51 53 56 49 41 49 52 57 51 25 347 1 3 357 358 11 5 331 253 217 208 204 198 182 181 178 179 183 180 190 210 205 225 281 307 316 294
344 351 346 346 359 7 21 36 60 52 44 60 65 73 70 49 38 23 11 1 353 3 7 352 327 263 225 218 213 205 197 195 192 194 190 187 192 196 205 245 283 299 295
281 283 286 295 292 287 280 311 76 60 28 70 84 101 110 96 82 41 4 354 344 338 342 345 330 309 275 242 220 216 216 203 202 205 207 208 215 201 195 224 262 279 293
264 267 266 265 265 264 263 259 245 240 244 226 221 214 186 171 190 208 223 257 264 274 292 316 321 320 309 290 242 228 227 216 215 218 213 212 218 209 207 204 219 269 274
264 264 264 262 261 263 262 258 256 256 252 242 238 242 233 222 224 229 231 240 252 262 277 297 308 304 307 302 282 252 248 231 225 226 224 221 222 213 214 211 208 222 259
268 271 270 266 267 266 269 268 257 254 255 252 244 242 238 235 232 229 236 239 244 247 263 272 276 286 289 286 282 270 267 257 245 230 227 229 224 216 213 213 214 217 230
270 273 274 275 275 273 268 265 264 263 264 258 253 253 252 247 243 241 242 239 240 241 242 247 252 257 262 261 259 262 261 255 260 257 239 236 227 221 217 212 213 218 222
284 283 280 281 280 277 274 266 262 260 260 260 259 256 255 251 245 244 244 238 237 238 236 235 239 246 245 237 237 250 249 246 251 251 247 247 238 228 221 215 218 220 218
296 293 291 289 282 278 276 271 265 260 260 258 256 258 258 252 247 246 244 237 233 237 237 230 233 240 241 238 233 234 244 243 245 243 240 245 241 239 230 223 222 222 221
292 293 291 288 284 282 279 277 275 270 267 263 259 258 257 253 251 248 244 240 234 233 235 232 231 233 236 237 238 234 238 241 243 241 236 238 235 239 237 231 226 220 219
293 289 285 284 285 285 284 279 277 277 274 271 266 261 259 257 254 253 250 245 237 236 231 232 234 232 229 232 230 230 234 234 242 246 245 245 245 243 237 230 223 215 215
290 287 287 286 285 284 283 282 280 278 277 273 271 270 268 264 258 254 251 247 243 239 230 228 232 233 233 229 224 219 225 231 239 249 254 256 256 257 250 237 227 216 214
288 288 289 286 284 284 283 281 279 279 277 274 273 271 268 266 263 260 254 247 245 240 232 232 229 232 235 233 232 230 223 228 234 239 246 256 253 247 252 247 235 225 222
290 291 291 289 287 286 286 283 283 280 278 277 275 272 268 266 264 260 254 248 244 239 236 235 231 230 237 234 233 235 229 228 233 235 236 241 253 250 243 247 243 236 229
288 288 289 291 290 291 290 291 290 286 283 281 278 275 270 267 264 258 255 250 244 243 237 233 228 227 237 236 234 231 221 228 238 238 234 233 244 249 239 237 242 242 238
296 296 296 297 297 296 296 295 293 291 289 287 283 278 271 266 263 258 254 251 244 244 242 239 230 227 233 235 231 224 212 227 238 239 235 233 236 244 237 232 232 235 230
296 298 299 301 299 300 300 297 296 293 292 292 287 281 275 269 264 258 251 247 245 244 241 241 237 228 229 236 234 224 206 217 228 233 235 232 230 239 238 231 231 230 216
301 302 304 303 302 302 302 300 298 296 295 294 290 285 279 275 274 259 250 243 239 240 240 239 240 235 230 229 233 227 218 211 215 224 227 226 229 238 237 230 230 223 206
303 305 306 307 307 306 305 303 303 303 301 298 295 289 286 278 270 261 254 246 236 235 235 229 233 235 228 229 231 232 227 216 211 221 221 219 226 233 237 230 225 209 199
308 309 311 313 314 314 311 306 306 307 304 301 299 293 288 284 272 261 251 242 235 231 228 225 227 229 224 223 221 222 221 214 209 210 211 210 212 219 230 222 213 205 196
309 310 314 316 316 317 315 313 313 312 308 303 299 296 288 284 280 265 249 244 235 224 220 221 216 214 222 223 211 201 201 194 191 178 182 190 196 208 213 207 205 192 180
314 317 319 318 318 318 316 317 317 315 310 307 303 298 294 289 281 274 269 246 240 234 227 226 220 220 223 222 217 212 207 192 172 168 189 199 203 207 206 195 189 182 172